DRAGRACER 2 (AUGURY) (46955 NORAD) Tracking and Keplerian Element Data

This shows tracking and keplerian element data for the satellite.

Feedback or suggestion? Click here.




ElementValue
Catalog46955
NameDRAGRACER 2 (AUGURY)
Epoch Orbit848
Epoch Day14.95221047
Epoch Year2021
RAAN154.2976
Inclination97.3698
Eccentricity0.0015282
Argument of Perigee113.3949
Mean Anonmoly246.8892
Mean Motion15.20002567
Decay Rate5.34E-06
L11 46955U 20085AC 21014.95221047 .00000534 00000-0 27867-4 0 9998
L22 46955 97.3698 154.2976 0015282 113.3949 246.8892 15.20002567 8482

Live tracking and technical data element details for DRAGRACER 2 (AUGURY) (NORAD 46955). DRAGRACER 2 (AUGURY) can be tracked NOW for your location showing map with azimuth and elevation plus other details from your city location.

Track the satellite on the map from your city or location and see movement details for azimuth, elevation, latitude, longitude, range, height, and movement on the map or in text.







IsCatalogInMostPopularTable: catalog: 46955, numindb: 19
Update: records affected: 1



GetName: 46955 DRAGRACER 2 (AUGURY)

Hit Count: updated at: Fri, 15 Jan 2021 23:23:44 GMT